sat.trackr.live / text

‹ back to catalog

KUIPER-00567

NORAD 69626 · 2026-140AL

PAYLOAD ACTIVE UNKNOWN

§ Identity

Operator
Country
US
Launch date
2026-06-17
Launch site
FRGUI
Launch vehicle
Mass (kg)
RCS (m²)

External: N2YO · Heavens-Above · Gunter

§ Orbital elements

Epoch: 2026-09-20T04:06:39.013632Z

Period
97.30 min
Inclination
51.8987°
Eccentricity
0.0002287
Mean motion
14.79935213 rev/d
Perigee alt
627.9 km
Apogee alt
631.1 km
Semi-major
7,007.7 km
B*
-8.5957e-5
RAAN
308.1525°
Arg perigee
135.2669°
Mean anomaly
224.8478°
Rev number
1,572

§ Raw data

KUIPER-005671 69626U 26140AL  26263.17128488 -.00000877  00000+0 -85957-4 0  99912 69626  51.8987 308.1525 0002287 135.2669 224.8478 14.79935213 15728

JSON: /api/v1/satellites/69626 · /tle

For live sub-satellite position, see the globe view (requires WebGL).

§ Visibility from observer

Set your observer location to see the next 7 days of passes ≥ 10°. The values pass through the URL so the page stays shareable.

No JS? Fill the form by hand. The geolocation button needs JavaScript.